Starlink 32491

operational
NORAD ID: 62043 Int'l Des: 2024-216 Owner: SPXS Country: US Constellation: starlink
LEOCIRCULAR

About Starlink 32491

Description loading...

Live Position

Loading 3D Globe...

Upcoming Passes

Altitude History

Altitude vs Time

uPlot chart will show altitude changes over time

Two-Line Element Set

1 62043U 24216M 25305.95403349 .00022290 00000-0 81654-3 0 9994
2 62043 42.9996 265.1869 0000757 206.0308 154.0505 15.27601980 54256
Epoch: Nov 1, 2025 • Age: 20 hours

Current Status

Altitude 486.7 km
Velocity 7.62 km/s
Sub-Earth Point -17.20°S, 88.96°W
Launch Date Nov 21, 2024
Age 0.9 years
Type internet

Technical Details

Classification Payload
Mass 730.00 kg
Dry Mass 700.00 kg
Total Mass 730.00 kg
Length 0.30 m
Diameter 4.10 m
Span 29.00 m
Shape Box + pan
Manufacturer SPXS
Bus Type Starlink V2M
Phase Status In Orbit
Owner/State SPXS/US

Large Constellations

Loading constellations...